Powrót do katalogu

STARLINK-11096

AktywnyŁącznośćVLEO
NORAD 59719·PAYLOAD·🇺🇸 United States

Wystrzelony May 10, 2024 z Vandenberg Space Force Base

Loading…

Następne Przeloty (najbliższe 24 godziny)

TLE

ŚwieżeSource: CelesTrak SupGP

Epoka: Sep 14, 2026, 21:36 UTC

1 59719C 24088M   26257.90048611 -.00057801  00000+0 -47606-3 0  2579
2 59719  53.1566 113.8897 0001129  78.0520 331.8469 15.69741624    11

Śledź STARLINK-11096 w czasie rzeczywistym z AllMySat

Download on the App Store